{"data":{"norad_id":67473,"epoch":"2026-09-19T12:18:00.696384Z","epoch_age_seconds":157572,"freshness":"FRESH","line1":"1 67473U 26008AE  26262.51250806  .00009233  00000+0  34451-3 0  9994","line2":"2 67473  43.0019 190.7116 0001518 273.9024  86.1654 15.27591782 39215","mean_motion":15.27591782,"eccentricity":0.0001518,"inclination_deg":43.0019,"raan_deg":190.7116,"arg_perigee_deg":273.9024,"mean_anomaly_deg":86.1654,"bstar":0.00034451,"rev_number":3921,"period_min":94.266021653683,"perigee_km":481.97229402588,"apogee_km":484.05533941383,"semimajor_km":6861.1508167199,"source":"CELESTRAK","updated_at":"2026-09-20T09:00:43.555185Z"}}